Overview Statistics Trail Chart Weather Telemetry Raw packets
 

This is the latest recevied weather packets stored in our database for station/object IU1OLT-6. If no packets are shown the sender has not sent any weather packets the latest 10 day(s).

<< 33 34 35 36 37 >>
Time Temp. Humidity Pressure Rain* Wind** Luminosity Snow
1787873129 17.78° C 82% 1015.8 hPa 0 mm - - -
1787872217 17.22° C 78% 1015.3 hPa 0 mm - - -
1787871209 16.67° C 97% 1015.9 hPa 0 mm - - -
1787870297 17.22° C 97% 1016.6 hPa 0 mm - - -
1787869385 16.67° C 97% 1016.7 hPa 0 mm - - -
1787868425 17.22° C 97% 1016.9 hPa 0 mm - - -
1787867465 17.22° C 96% 1016.6 hPa 0 mm - - -
1787866505 16.67° C 92% 1016.1 hPa 0 mm - - -
1787865549 16.67° C 95% 1016.6 hPa 0 mm - - -
1787864585 17.22° C 89% 1016 hPa 0 mm - - -
1787863625 17.22° C 84% 1015.9 hPa 0 mm - - -
1787862666 18.89° C 73% 1015.8 hPa 0 mm - - -
1787861705 18.89° C 67% 1016 hPa 0 mm - - -
1787860746 19.44° C 70% 1016 hPa 0 mm - - -
1787859786 18.89° C 72% 1016.3 hPa 0 mm - - -
1787858777 19.44° C 67% 1015.9 hPa 0 mm - - -
1787857866 17.78° C 76% 1016 hPa 0 mm - - -
1787856953 18.33° C 79% 1016.2 hPa 0 mm - - -
1787856042 18.33° C 77% 1015.7 hPa 0 mm - - -
1787855082 18.33° C 77% 1015.2 hPa 0 mm - - -
1787854122 18.89° C 74% 1015.2 hPa 0 mm - - -
1787853162 18.89° C 75% 1015.3 hPa 0 mm - - -
1787852202 18.33° C 80% 1015.4 hPa 0 mm - - -
1787851242 18.33° C 79% 1015.3 hPa 0 mm - - -
1787850282 18.33° C 78% 1014.9 hPa 0 mm - - -

* Rain latest hour (hover to see other rain measurements)
** Current wind speed in m/s (hover to see current wind gust speed)